Regional Weather Roundup
Issued by NWS

Home | Current Version | Previous Version | Text Only | Print | Product List | Glossary Off
Versions: 1 2 3 4 5 6 7 8 9 10 11 12 13 14 15 16 17 18 19 20 21 22 23 24 25 26 27 28 29 30 31 32 33 34 35 36 37 38 39 40 41 42 43 44 45 46 47 48 49 50

000
ASUS43 KLMK 221902
RWRKY
KENTUCKY REGIONAL WEATHER ROUNDUP
NATIONAL WEATHER SERVICE LOUISVILLE KY
300 PM EDT MON SEP 22 2014

NOTE "FAIR" INDICATES FEW OR NO CLOUDS BELOW 12,000 FEET
WITH NO SIGNIFICANT WEATHER AND/OR OBSTRUCTIONS TO VISIBILITY.

KYZ001>023-026-027-061>063-070>075-222000-
WESTERN AND SOUTH CENTRAL KENTUCKY

CITY           SKY/WX    TMP DP  RH WIND       PRES   REMARKS
PADUCAH        SUNNY     75  46  35 N9        30.22F
HENDERSON      SUNNY     70  45  40 N7        30.24S
OWENSBORO      SUNNY     69  47  45 N10       30.23F
HOPKINSVILLE   SUNNY     73  47  39 NE12      30.20F
BOWLING GREEN  SUNNY    N/A N/A N/A NE12G17   30.20F
GLASGOW        SUNNY     70  43  37 NE3       30.20F
$$

KYZ024-025-028>034-038-045-046-053-222000-
NORTH CENTRAL KENTUCKY

CITY           SKY/WX    TMP DP  RH WIND       PRES   REMARKS
LOUISVILLE/SDF MOSUNNY   67  44  43 N12       30.22F
LOUISVILLE/LOU SUNNY     66  44  45 MISG      30.23F
FORT KNOX      SUNNY     66  45  46 N10       30.20F
$$

KYZ035>037-039>044-047>052-055>060-089>105-222000-
NORTHEAST KENTUCKY

CITY           SKY/WX    TMP DP  RH WIND       PRES   REMARKS
LEXINGTON      SUNNY     66  45  46 N9        30.22S
COVINGTON      SUNNY     63  42  46 NW6       30.23F
FRANKFORT      SUNNY     64  43  46 W3        30.21F
$$

KYZ054-064>069-076>088-106>120-222000-
SOUTHEAST KENTUCKY

CITY           SKY/WX    TMP DP  RH WIND       PRES   REMARKS
JACKSON        PTSUNNY   65  47  52 VRB5      30.19F
LONDON         SUNNY     67  47  48 VRB7      30.20F
SOMERSET       SUNNY     66  45  45 N7        30.21F
MIDDLESBORO    MOSUNNY   67  50  53 NE9       30.17F
MONTICELLO     CLEAR     71  49  45 NW10      30.21F
$$



USA.gov is the U.S. government's official web portal to all federal, state and local government web resources and services.